User: anonymous   Login
Location: Maiden
(35.5760°N, 81.2120°W)
Time: 16:45:03
(UTC-05:00)
Language:

Cosmos 2151 - Orbit

View from above orbital plane
View from above orbital plane
View from above satellite
View from above satellite

Ground track
Ground track

The orbit data is extracted from the following two-line orbital elements,

1 21422U 91042A   16337.86941763 +.00000295 +00000-0 +26723-4 0  9991
2 21422 082.5020 073.2586 0013240 225.6473 134.3662 14.91740821358154
Epoch (UTC): 02 December 2016 20:51:57
Eccentricity: 0.0013240
inclination: 82.5020°
perigee height: 583 km
apogee height: 602 km
right ascension of ascending node: 73.2586°
argument of perigee: 225.6473°
revolutions per day: 14.91740821
mean anomaly at epoch: 134.3662°
orbit number at epoch: 35815

The dashed part of the orbit path shows where the satellite is in the earth's shadow,  

DLR